Regional Weather Roundup
Issued by NWS Sterling, VA

Home | Current Version | Previous Version | Text Only | Print | Product List | Glossary On
Versions: 1 2 3 4 5 6 7 8 9 10 11 12 13 14 15 16 17 18 19 20 21 22 23 24 25 26 27 28 29 30 31 32 33 34 35 36 37 38 39 40 41 42 43 44 45 46 47 48 49 50
000
ASUS41 KLWX 191910
RWRLWX

REGIONAL WEATHER ROUNDUP
NATIONAL WEATHER SERVICE BALTIMORE MD/WASHINGTON DC
300 PM EDT FRI SEP 19 2014

Note: "FAIR" indicates few or no clouds below 12,000 feet
with no significant weather and/or obstructions to visibility.
 TC=TEMPERATURE CELSIUS

 * =Non NWS site. Station does not report precipitation (e.g. rain,
    snow, etc.), thunder, or fog.

DCZ001-MDZ009-015-VAZ040>042-051-053>054-192000-
WASHINGTON METRO

CITY           SKY/WX    TMP DP  RH WIND       PRES   REMARKS
WASHINGTON NAT PTSUNNY   76  54  46 E6        30.26S
DULLES         PTSUNNY   70  55  59 VRB7      30.25F
ANDREWS AFB    SUNNY     74  56  54 VRB6      30.26S
QUANTICO       MOSUNNY   75  58  55 N8        30.25F
COLLEGE PARK*  PTSUNNY   73  55  53 E5        30.25F
LEESBURG*      CLOUDY    73  59  60 E6        30.26F
GAITHERSBURG*  PTSUNNY   70  57  64 SE10      30.30S

$$

MDZ006>007-011-014-192000-
BALTIMORE METRO

CITY           SKY/WX    TMP DP  RH WIND       PRES   REMARKS
BWI AIRPORT    MOSUNNY   73  56  54 E9        30.26F
MD SCIENCE CTR   N/A     73  56  54 MISG      30.27F
MARTIN STATE   MOSUNNY   73  61  64 NE9       30.28F
ANNAPOLIS      SUNNY     72  58  61 NE6       30.26S
FORT MEADE*    PTSUNNY   73  55  53 SE9       30.28F

$$

MDZ012-015-019>023-192000-
MARYLAND EASTERN SHORE

CITY           SKY/WX    TMP DP  RH WIND       PRES   REMARKS
OCEAN CITY     MOSUNNY   74  61  63 E15G22    30.25S
SALISBURY      MOSUNNY   77  59  53 NE16      30.25R
BAY BRIDGE AP*   N/A     73  54  49 NE6       30.26S
CAMBRIDGE*     MOSUNNY   75  59  57 E10G16    30.25R
EASTON*        MOSUNNY   73  59  60 E12       30.30R

$$

MDZ017>025-192000-
SOUTHERN MARYLAND

CITY           SKY/WX    TMP DP  RH WIND       PRES   REMARKS
PATUXENT RIVER PTSUNNY   75  52  44 E7        30.25S
ST INIGOES     PTSUNNY   77  51  40 NE6       30.24S
LEONARDTOWN*   CLOUDY    73  46  38 E6        30.26S

$$

MDZ003>005-192000-
NORTH CENTRAL MARYLAND

CITY           SKY/WX    TMP DP  RH WIND       PRES   REMARKS
FREDERICK*     PTSUNNY   75  57  53 E6        30.28F
HAGERSTOWN APT CLOUDY    70  52  52 VRB3      30.26F
WESTMINSTER*   PTSUNNY   72  54  53 SE7       30.27S

$$

MDZ501>502-192000-
WESTERN MARYLAND

CITY           SKY/WX    TMP DP  RH WIND       PRES   REMARKS
OAKLAND*       SUNNY     63  54  72 SE15G22   30.25F
CUMBERLAND*    PTSUNNY   73  50  43 E6        30.27F

$$

VAZ025>031-192000-
SHENANDOAH VALLEY

CITY           SKY/WX    TMP DP  RH WIND       PRES   REMARKS
WINCHESTER*    CLOUDY    70  52  52 E7        30.25S
STAUNTON*      CLOUDY    66  55  66 SW5       30.28S

$$

WVZ021-048>050-054>055-192000-
EASTERN WEST VIRGINIA PANHANDLE

CITY           SKY/WX    TMP DP  RH WIND       PRES   REMARKS
MARTINSBURG    CLOUDY    71  50  47 SE9       30.26F
PETERSBURG*    CLOUDY    67  50  54 W7        30.26R

$$

VAZ036>039-050-192000-
CENTRAL FOOTHILLS

CITY           SKY/WX    TMP DP  RH WIND       PRES   REMARKS
CHARLOTTESVILL CLOUDY    69  57  65 CALM      30.25F
ORANGE*        PTSUNNY   72  59  64 W3        30.26F

$$

VAZ055>057-192000-
NORTH AND CENTRAL PIEDMONT

CITY           SKY/WX    TMP DP  RH WIND       PRES   REMARKS
FREDERICKSBRG* MOSUNNY   76  60  56 NE6       30.22F
STAFFORD*      MOSUNNY   74  58  58 E8        30.28S

$$

NCZ024-NYZ072-PAZ021-071-VAZ022-071-192000-
OTHER REGIONAL OBSERVATIONS

CITY           SKY/WX    TMP DP  RH WIND       PRES   REMARKS
NEW YORK CITY  SUNNY     66  44  45 NE7       30.37F
PHILADELPHIA   PTSUNNY   71  52  50 E12       30.31S
PITTSBURGH     MOSUNNY   71  50  47 SE9G20    30.18F
ROANOKE        LGT RAIN  60  58  92 NE6       30.28S FOG
RICHMOND       PTSUNNY   78  54  43 SE5       30.22F
RALEIGH        MOSUNNY   79  58  48 E10G16    30.18S

$$

ANZ530>537-192000-
MARINE OBSERVATIONS

STATION/POSITION TIME  TEMP    WIND        PRES
                       AIR SEA DIR/SP/G
                 (UTC) (F)     (DEG/KT/KT) (MB)
THOMAS PT LIGHT  1900   69 74   10/  7/  8 1025.6F
BALT KEY BRIDGE  1900   69      70/  8/ 10 1024.8S
COVE POINT       1900   69     350/  9/ 10 1024.2F
LEWISETTA        1900   72 74   80/  5/  6 1023.7F
SOLOMONS ISLAND  1900      76                N/A
PINEY POINT      1900          130/  5/  8   N/A

$$




USA.gov is the U.S. government's official web portal to all federal, state and local government web resources and services.